Weather History for KDDH - January, 2014

Change the Weather History Date:

Friday, January 3, 2014

  Actual Average Record
Temperature  
Mean Temperature -8 °F 22 °F  
Max Temperature 1 °F 31 °F 36 °F (2015)
Min Temperature -17 °F 13 °F 14 °F (2015)
Degree Days  
Heating Degree Days 73 43  
Month to date heating degree days 181 129  
Since 1 July heating degree days 2844 2901  
Cooling Degree Days 0 0  
Month to date cooling degree days 0 0  
Year to date cooling degree days 0 0  
Moisture  
Dew Point -13 °F    
Average Humidity 69    
Maximum Humidity 86    
Minimum Humidity 51    
Precipitation  
Precipitation 0.07 in 0.11 in 0.34 in (2015)
Month to date precipitation 0.32 0.35  
Year to date precipitation 0.32 0.35  
Sea Level Pressure  
Sea Level Pressure 30.07 in    
Wind  
Wind Speed 4 mph (WNW)    
Max Wind Speed 17 mph    
Max Gust Speed 28 mph    
Visibility 5 miles    
Events Snow    
T = Trace of Precipitation, MM = Missing Value Source: NWS Daily Summary

Daily Weather History Graph

Daily Weather History Graph

Search for Another Location

Airport or City:

Trip Planner

Search our weather history database for the weather conditions in past years. The results will help you decide how hot, cold, wet, or windy it might be!

Date:

Astronomy

Jan. 03, 2014 Rise Set
Actual Time 7:24 AM EST 4:31 PM EST
Civil Twilight 6:52 AM EST 5:03 PM EST
Nautical Twilight 6:16 AM EST 5:38 PM EST
Astronomical Twilight 5:42 AM EST 6:13 PM EST
Moon 8:43 AM EST (1/3) 7:42 PM EST (1/3)
Length of Visible Light 10h 11m
Length of Day
9h 07m
Waxing Crescent, 8% of the Moon is Illuminated
Jan 3
Waxing Crescent
Jan 7
First Quarter
Jan 15
Full
Jan 24
Last Quarter
Jan 30
New

Hourly Weather History & Observations

Time (EST) Temp. Windchill Dew Point Humidity Pressure Visibility Wind Dir Wind Speed Gust Speed Precip Events Conditions
12:54 AM -5.1 °F -13.6 °F -11.9 °F 72% 29.89 in 1.0 mi SW 3.5 mph - 0.01 in Snow Light Snow
1:13 AM -5.8 °F -18.4 °F -11.2 °F 77% 29.81 in 1.2 mi SSW 5.8 mph - 0.00 in Snow Light Snow
1:54 AM -6.0 °F - -11.9 °F 75% 29.87 in 1.2 mi Calm Calm - 0.01 in Snow Light Snow
2:07 AM -5.8 °F -14.5 °F -11.2 °F 77% 29.82 in 1.0 mi WSW 3.5 mph - 0.00 in Snow Light Snow
2:33 AM -5.8 °F - -11.2 °F 77% 29.82 in 1.2 mi Calm Calm - 0.01 in Snow Light Snow
2:54 AM -6.0 °F - -11.9 °F 75% 29.86 in 1.5 mi Calm Calm - 0.02 in Snow Light Snow
3:54 AM -6.0 °F - -11.9 °F 75% 29.88 in 1.5 mi Calm Calm - 0.00 in Snow Light Snow
4:15 AM -5.8 °F -18.4 °F -13.0 °F 71% 29.83 in 2.0 mi West 5.8 mph - 0.01 in Snow Light Snow
4:38 AM -5.8 °F -16.7 °F -11.2 °F 77% 29.84 in 1.5 mi WNW 4.6 mph - 0.01 in Snow Light Snow
4:54 AM -6.0 °F -14.7 °F -11.9 °F 75% 29.91 in 1.5 mi NW 3.5 mph - 0.01 in Snow Light Snow
5:28 AM -5.8 °F -16.7 °F -11.2 °F 77% 29.86 in 2.5 mi West 4.6 mph - 0.00 in Snow Light Snow
5:39 AM -5.8 °F -14.5 °F -11.2 °F 77% 29.86 in 2.5 mi WNW 3.5 mph - 0.01 in Snow Light Snow
5:49 AM -5.8 °F -16.7 °F -11.2 °F 77% 29.87 in 3.0 mi WNW 4.6 mph - 0.01 in Snow Light Snow
5:54 AM -6.0 °F -16.9 °F -11.9 °F 75% 29.94 in 3.0 mi NW 4.6 mph - 0.01 in Snow Light Snow
6:02 AM -5.8 °F -14.5 °F -11.2 °F 77% 29.87 in 2.0 mi NW 3.5 mph - 0.00 in Snow Light Snow
6:24 AM -5.8 °F -18.4 °F -13.0 °F 71% 29.90 in 1.8 mi NW 5.8 mph - 0.00 in Snow Light Snow
6:54 AM -6.0 °F -16.9 °F -13.0 °F 72% 29.99 in 1.5 mi NW 4.6 mph - 0.00 in Snow Light Snow
7:39 AM -5.8 °F -16.7 °F -13.0 °F 71% 29.94 in 2.5 mi NW 4.6 mph - 0.01 in Snow Light Snow
7:54 AM -6.0 °F -18.6 °F -13.0 °F 72% 30.04 in 1.8 mi WNW 5.8 mph - 0.01 in Snow Light Snow
8:11 AM -5.8 °F -18.4 °F -13.0 °F 71% 29.97 in 1.8 mi WNW 5.8 mph - 0.00 in Snow Light Snow
8:23 AM -5.8 °F -14.5 °F -13.0 °F 71% 29.97 in 2.0 mi NW 3.5 mph - 0.00 in Snow Light Snow
8:46 AM -5.8 °F -19.9 °F -14.8 °F 65% 29.99 in 4.0 mi NW 6.9 mph - 0.00 in Snow Light Snow
8:54 AM -6.0 °F -20.1 °F -14.1 °F 68% 30.07 in 5.0 mi NNW 6.9 mph - 0.00 in   Haze
9:29 AM -5.8 °F -19.9 °F -14.8 °F 65% 30.02 in 7.0 mi Variable 6.9 mph - N/A   Overcast
9:54 AM -5.1 °F -22.5 °F -15.0 °F 62% 30.11 in 6.0 mi NW 10.4 mph 19.6 mph N/A   Haze
10:35 AM -4.0 °F -22.1 °F -14.8 °F 60% 30.05 in 5.0 mi NNW 11.5 mph 20.7 mph N/A   Haze
10:50 AM -2.2 °F -21.5 °F -14.8 °F 55% 30.06 in 5.0 mi NNW 13.8 mph 23.0 mph N/A   Haze
10:54 AM -2.9 °F -23.8 °F -15.0 °F 56% 30.13 in 6.0 mi NW 16.1 mph 23.0 mph N/A   Haze
11:03 AM -2.2 °F -21.5 °F -14.8 °F 55% 30.06 in 5.0 mi NW 13.8 mph 27.6 mph 0.00 in   Scattered Clouds
11:54 AM -0.9 °F -12.7 °F -14.1 °F 54% 30.15 in 10.0 mi Variable 5.8 mph - 0.00 in   Clear
12:54 PM -0.9 °F -14.1 °F -14.1 °F 54% 30.18 in 10.0 mi North 6.9 mph - N/A   Clear
1:54 PM -0.0 °F -15.3 °F -13.0 °F 54% 30.21 in 10.0 mi WNW 9.2 mph 16.1 mph N/A   Clear
2:54 PM -0.0 °F -13.0 °F -11.9 °F 57% 30.25 in 10.0 mi West 6.9 mph - N/A   Clear
3:54 PM -0.0 °F -9.9 °F -11.0 °F 60% 30.28 in 10.0 mi West 4.6 mph - N/A   Clear
4:54 PM -2.9 °F -11.2 °F -11.0 °F 68% 30.32 in 10.0 mi West 3.5 mph - N/A   Scattered Clouds
5:02 PM -2.2 °F -10.4 °F -11.2 °F 66% 30.25 in 10.0 mi WNW 3.5 mph - N/A   Mostly Cloudy
5:23 PM -2.2 °F - -11.2 °F 66% 30.27 in 10.0 mi Calm Calm - N/A   Scattered Clouds
5:54 PM -6.0 °F - -13.0 °F 72% 30.36 in 10.0 mi Calm Calm - N/A   Clear
6:54 PM -11.9 °F -21.5 °F -17.0 °F 78% 30.40 in 10.0 mi SSW 3.5 mph - N/A   Clear
7:54 PM -9.0 °F -22.3 °F -16.1 °F 71% 30.43 in 10.0 mi SSW 5.8 mph - N/A   Clear
8:54 PM -11.0 °F - -15.0 °F 83% 30.45 in 9.0 mi Calm Calm - N/A   Clear
9:54 PM -15.0 °F - -20.0 °F 78% 30.45 in 10.0 mi Calm Calm - N/A   Clear
10:54 PM -15.0 °F - -18.9 °F 82% 30.45 in 9.0 mi Calm Calm - N/A   Clear
11:54 PM -15.0 °F - -20.0 °F 78% 30.45 in 10.0 mi Calm Calm - N/A   Clear